Weather History for Barcelona, Spain

Change the Weather History Date:

Monday, January 7, 2013

  Actual Average Record
Temperature  
Mean Temperature 56 °F -  
Max Temperature 66 °F 54 °F 66 °F (2013)
Min Temperature 46 °F 40 °F 33 °F (2009)
Degree Days  
Heating Degree Days 9    
Growing Degree Days 6 (Base 50)    
Moisture  
Dew Point 41 °F    
Average Humidity 64    
Maximum Humidity 94    
Minimum Humidity 27    
Precipitation  
Precipitation 0.00 in 0.05 in - ()
Sea Level Pressure  
Sea Level Pressure 30.21 in    
Wind  
Wind Speed 13 mph ()    
Max Wind Speed 21 mph    
Max Gust Speed 29 mph    
Visibility 11.0 miles    
Events      
Averages and records for this station are not official NWS values.
T = Trace of Precipitation, MM = Missing Value Source: Averaged Metar Reports

Daily Weather History Graph

Daily Weather History Graph

Search for Another Location

Airport:

Trip Planner

Search our weather history database for the weather conditions in past years. The results will help you decide how hot, cold, wet, or windy it might be!

Date:

Astronomy

Jan. 07, 2013 Rise Set
Actual Time 8:17 AM CET 5:38 PM CET
Civil Twilight 7:46 AM CET 6:09 PM CET
Nautical Twilight 7:12 AM CET 6:44 PM CET
Astronomical Twilight 6:38 AM CET 7:17 PM CET
Moon 3:22 AM CET (1/7) 1:38 PM CET (1/7)
Length of Visible Light 10h 23m
Length of Day
9h 21m
Waning Crescent, 25% of the Moon is Illuminated
Jan 7
Waning Crescent
Jan 11
New
Jan 19
First Quarter
Jan 27
Full
Feb 3
Last Quarter

Hourly Weather History & Observations

Time (CET) Temp. Dew Point Humidity Pressure Visibility Wind Dir Wind Speed Gust Speed Precip Events Conditions
12:00 AM 51.8 °F 35.6 °F 54% 30.27 in - NW 15.0 mph - N/A   Clear
12:30 AM 50.0 °F 35.6 °F 58% 30.24 in - NW 17.3 mph - N/A   Clear
1:00 AM 49 °F 35 °F 48% 30.26 in 19 mi NNW 13.8 mph - -  
1:00 AM 50.0 °F 35.6 °F 58% 30.24 in - NW 17.3 mph - N/A   Clear
1:30 AM 50.0 °F 37.4 °F 62% 30.24 in - NW 16.1 mph - N/A   Clear
2:00 AM 48.2 °F 37.4 °F 66% 30.24 in - NW 16.1 mph - N/A   Clear
2:30 AM 48.2 °F 37.4 °F 66% 30.21 in - NW 13.8 mph - N/A   Clear
3:00 AM 48.2 °F 37.4 °F 66% 30.21 in - NW 16.1 mph - N/A   Clear
3:30 AM 48.2 °F 35.6 °F 62% 30.21 in - NW 16.1 mph - N/A   Clear
4:00 AM 48.2 °F 35.6 °F 62% 30.21 in - NW 15.0 mph - N/A   Clear
5:00 AM 48.2 °F 37.4 °F 66% 30.18 in - NW 17.3 mph - N/A   Clear
5:30 AM 48.2 °F 35.6 °F 62% 30.18 in - NW 18.4 mph - N/A   Clear
6:30 AM 48.2 °F 35.6 °F 62% 30.18 in - NW 19.6 mph - N/A   Clear
7:00 AM 47 °F 35 °F 52% 30.19 in 16 mi NNW 13.8 mph - -   Clear
7:30 AM 48.2 °F 35.6 °F 62% 30.18 in - NW 19.6 mph - N/A   Clear
8:00 AM 48.2 °F 35.6 °F 62% 30.18 in - NW 17.3 mph - N/A   Clear
8:30 AM 48.2 °F 35.6 °F 62% 30.18 in - NW 15.0 mph - N/A   Clear
9:00 AM 50.0 °F 35.6 °F 58% 30.18 in - NW 17.3 mph - N/A   Clear
9:30 AM 50.0 °F 35.6 °F 58% 30.18 in - NW 16.1 mph 27.6 mph N/A   Clear
10:00 AM 51.8 °F 37.4 °F 58% 30.18 in - NW 20.7 mph - N/A   Clear
10:30 AM 51.8 °F 37.4 °F 58% 30.18 in - NW 16.1 mph - N/A   Clear
11:00 AM 55.4 °F 37.4 °F 51% 30.21 in - NW 16.1 mph - N/A   Clear
11:30 AM 57.2 °F 37.4 °F 48% 30.21 in - NW 12.7 mph - N/A   Clear
12:00 PM 59.0 °F 37.4 °F 45% 30.18 in - NW 17.3 mph 28.8 mph N/A   Clear
12:30 PM 60.8 °F 37.4 °F 42% 30.18 in - NW 11.5 mph - N/A   Clear
1:00 PM 62 °F 36 °F 27% 30.20 in 19 mi NNW 16.1 mph - -   Clear
1:30 PM 64.4 °F 37.4 °F 37% 30.18 in - North 8.1 mph 19.6 mph N/A   Clear
2:00 PM 66.2 °F 37.4 °F 35% 30.18 in - ENE 9.2 mph - N/A   Clear
2:30 PM 64.4 °F 44.6 °F 49% 30.18 in - ENE 12.7 mph - N/A   Clear
3:00 PM 62.6 °F 46.4 °F 55% 30.18 in - ENE 12.7 mph - N/A   Clear
3:30 PM 62.6 °F 42.8 °F 48% 30.18 in - NE 12.7 mph - N/A   Clear
4:00 PM 62.6 °F 46.4 °F 55% 30.18 in - NE 13.8 mph - N/A   Clear
4:30 PM 60.8 °F 48.2 °F 63% 30.18 in - ENE 12.7 mph - N/A   Clear
5:00 PM 60.8 °F 50.0 °F 68% 30.18 in - ENE 10.4 mph - N/A   Clear
5:30 PM 59.0 °F 50.0 °F 72% 30.21 in - ENE 8.1 mph - N/A   Clear
6:00 PM 57.2 °F 50.0 °F 77% 30.21 in - ENE 8.1 mph - N/A   Clear
7:00 PM 55 °F 50 °F 79% 30.24 in 9 mi East 8.1 mph - -   Scattered Clouds
7:00 PM 55.4 °F 51.8 °F 88% 30.21 in 6.2 mi ENE 6.9 mph - N/A   Partly Cloudy
7:30 PM 55.4 °F 51.8 °F 88% 30.24 in 6.2 mi ENE 4.6 mph - N/A   Partly Cloudy
8:00 PM 53.6 °F 51.8 °F 94% 30.24 in 6.2 mi NE 6.9 mph - N/A   Partly Cloudy
8:30 PM 51.8 °F 48.2 °F 88% 30.24 in 6.2 mi Variable 2.3 mph - N/A   Partly Cloudy
9:00 PM 51.8 °F 48.2 °F 88% 30.24 in - NNE 5.8 mph - N/A   Clear
9:30 PM 51.8 °F 48.2 °F 88% 30.24 in - NE 4.6 mph - N/A   Clear
10:00 PM 50.0 °F 46.4 °F 87% 30.27 in - NW 2.3 mph - N/A   Clear
10:30 PM 50.0 °F 44.6 °F 82% 30.27 in - NW 5.8 mph - N/A   Clear
11:00 PM 48.2 °F 44.6 °F 87% 30.27 in - NW 4.6 mph - N/A   Clear
11:30 PM 48.2 °F 42.8 °F 82% 30.27 in - NW 3.5 mph - N/A   Clear